Location: Abundant Grace Fellowship
(35.0349°N, 90.0924°W)
Time: 21:02:05
(UTC+00:00)

YAOGAN 1 - Pass Details

Date: 18 January 2026
Orbit: 605 x 607 km, 97.8° (Epoch: 10 February)

Event Time Altitude Azimuth Distance (km) Brightness Sun altitude
Rises 00:53:07 0° 179° (S) 2,847 6.1 -20.1°
Reaches altitude 10° 00:55:20 10° 185° (S) 1,948 5.3 -20.5°
Maximum altitude 00:59:26 49° 260° (W) 789 3.5 -21.3°
Drops below altitude 10° 01:03:34 10° 336° (NNW) 1,960 5.3 -22.2°
Sets 01:05:48 0° 342° (NNW) 2,867 6.1 -22.6°
